TimePST,TemperatureF,Dew PointF,Humidity,Sea Level PressureIn,VisibilityMPH,Wind Direction,Wind SpeedMPH,Gust SpeedMPH,PrecipitationIn,Events,Conditions,WindDirDegrees,DateUTC
12:53 AM,28.9,26.1,89,30.35,10.0,Calm,Calm,-,N/A,,Clear,0,2013-01-12 08:53:00
1:53 AM,27.0,25.0,92,30.35,10.0,Calm,Calm,-,N/A,,Clear,0,2013-01-12 09:53:00
2:53 AM,26.1,24.1,92,30.35,10.0,Calm,Calm,-,N/A,,Clear,0,2013-01-12 10:53:00
3:53 AM,26.1,24.1,92,30.36,10.0,Calm,Calm,-,N/A,,Clear,0,2013-01-12 11:53:00
4:53 AM,27.0,24.1,89,30.36,10.0,Calm,Calm,-,N/A,,Clear,0,2013-01-12 12:53:00
5:53 AM,25.0,23.0,92,30.37,10.0,Calm,Calm,-,N/A,,Clear,0,2013-01-12 13:53:00
6:53 AM,24.1,21.9,91,30.38,10.0,Calm,Calm,-,N/A,,Clear,0,2013-01-12 14:53:00
7:53 AM,25.0,21.9,88,30.39,10.0,Calm,Calm,-,N/A,,Clear,0,2013-01-12 15:53:00
8:53 AM,26.1,24.1,92,30.40,10.0,Calm,Calm,-,N/A,,Clear,0,2013-01-12 16:53:00
9:53 AM,33.1,28.9,85,30.41,10.0,North,3.5,-,N/A,,Clear,360,2013-01-12 17:53:00
10:53 AM,34.0,24.1,67,30.42,10.0,North,5.8,-,N/A,,Clear,360,2013-01-12 18:53:00
11:53 AM,36.0,21.9,57,30.41,10.0,North,6.9,-,N/A,,Clear,10,2013-01-12 19:53:00
12:53 PM,36.0,19.9,52,30.42,10.0,North,8.1,-,N/A,,Clear,10,2013-01-12 20:53:00
1:53 PM,35.1,21.9,59,30.42,10.0,North,8.1,-,N/A,,Clear,360,2013-01-12 21:53:00
2:53 PM,35.1,23.0,61,30.41,10.0,North,5.8,-,N/A,,Clear,350,2013-01-12 22:53:00
4:53 PM,28.0,24.1,85,30.41,10.0,Calm,Calm,-,N/A,,Clear,0,2013-01-13 00:53:00
5:53 PM,28.0,24.1,85,30.43,10.0,Calm,Calm,-,N/A,,Clear,0,2013-01-13 01:53:00
6:53 PM,27.0,24.1,89,30.43,10.0,Calm,Calm,-,N/A,,Clear,0,2013-01-13 02:53:00
7:53 PM,26.1,24.1,92,30.42,10.0,Calm,Calm,-,N/A,,Clear,0,2013-01-13 03:53:00
8:53 PM,27.0,24.1,89,30.43,10.0,West,3.5,-,N/A,,Clear,280,2013-01-13 04:53:00
9:53 PM,24.1,23.0,96,30.44,10.0,Calm,Calm,-,N/A,,Clear,0,2013-01-13 05:53:00
10:53 PM,26.1,24.1,92,30.46,10.0,Calm,Calm,-,N/A,,Mostly Cloudy,0,2013-01-13 06:53:00
11:53 PM,28.9,27.0,92,30.46,10.0,Calm,Calm,-,N/A,,Overcast,0,2013-01-13 07:53:00